[[{"header":{"parameterUnit":"m.s-1","parameterCategory":1,"la1":30.2991,"la2":30.254,"lo1":-89.0895,"lo2":-89.0444,"dy":0.0017,"dx":0.0017,"nx":28,"ny":28,"refTime":"2024-10-18T21:00:00:Z","depth":0,"parameterNumber":2,"parameterNumberName":"U-component_of_WINDS"},"data":[0,0,0,0,0,0,0,0,0,0,0,0,0,0,0,0,0,0,0,0,0,0,0,0,0,0,0,0,0,0,0,0,0,0,0,0,0,0,0,0,0,0,0,0,0,0,0,0,0,0,0,0,0,0,0,0,0,0,-3.9599,-3.9599,0,-3.9642,-3.9643,-3.9643,-3.9557,-3.9554,-3.9552,-3.9549,-3.9595,-3.9598,-3.9602,0,0,0,0,0,0,0,0,0,0,0,0,0,-3.9443,-3.9446,-3.9599,-3.9599,-3.96,-3.9642,-3.9643,-3.9643,-3.9558,-3.9554,-3.9551,-3.9548,-3.9593,-3.9598,-3.9603,0,0,0,0,0,0,0,0,0,0,0,0,0,-3.9501,-3.9447,-3.9598,-3.9562,-3.9559,-3.9642,-3.9643,-3.9643,-3.9559,-3.9554,-3.955,-3.9546,-3.9592,-3.9597,-3.9603,-3.9723,0,0,-3.9621,-3.9623,0,0,0,0,0,0,0,0,-3.9498,-3.9507,-3.9567,-3.9565,-3.9562,-3.959,-3.9604,-3.967,-3.956,-3.9559,-3.9549,-3.9544,-3.9597,-3.9602,-3.9619,-3.9725,-3.9727,-3.9621,-3.9625,-3.9627,-3.9629,0,0,0,0,0,0,0,-3.9494,-3.9504,-3.9616,-3.9568,-3.9565,-3.9544,-3.9548,-3.9616,-3.9601,-3.9559,-3.9552,-3.9559,-3.9594,-3.9614,-3.962,-3.9728,-3.9621,-3.9626,-3.963,-3.9632,-3.9937,-3.9941,0,0,0,0,0,0,-3.9494,-3.9502,-3.9614,-3.9617,-3.9519,-3.955,-3.9554,-3.9585,-3.96,-3.9598,-3.9562,-3.9555,-3.9606,-3.9613,-3.9621,-3.9764,-3.9627,-3.9633,-3.9636,-3.9932,-3.9938,-3.9943,0,0,0,0,0,0,-3.9491,-3.9505,-3.9613,-3.9558,-3.957,-3.9557,-3.9593,-3.9588,-3.9608,-3.9603,-3.96,-3.9585,-3.9603,-3.9613,-3.9699,-3.9764,-3.9635,-3.964,-3.9927,-3.9934,-3.9941,-4.0051,0,0,0,0,0,0,-3.9487,-3.9505,-3.955,-3.9559,-3.9573,-3.969,-3.9597,-3.9592,-3.9618,-3.9608,-3.9623,-3.9622,-3.96,-3.9691,-3.9705,-3.977,-3.9645,-3.9921,-3.993,-3.9938,-4.0041,-4.006,-4.0077,0,0,0,0,0,-3.9482,-3.9579,-3.9552,-3.9567,-3.9629,-3.9694,-3.9701,-3.9675,-3.9623,-3.9669,-3.9666,-3.9621,-3.9755,-3.97,-3.9715,-3.9783,-3.9917,-3.9928,-3.9938,-4.0033,-4.0057,-4.0077,0,0,0,0,0,0,-3.9577,-3.9579,-3.955,-3.9653,-3.9674,-3.9679,-3.9736,-3.97,-3.9736,-3.9726,-3.9691,-3.9696,-3.9789,-3.9794,-3.9734,-3.9901,-3.9827,-3.9841,-3.9894,-3.9917,-3.9934,-3.9932,-3.965,0,0,0,0,0,-3.961,-3.9662,-3.9661,-3.9752,-3.9764,-3.9749,-3.9775,-3.9753,-3.9773,-3.9782,-3.9785,-3.9807,-3.9853,-3.9885,-3.9928,-4.0041,-4.0044,-4.0095,-4.0113,-4.0128,-4.0141,-4.0203,-4.0226,-3.9977,-3.9977,-3.9977,0,0,-3.9679,-3.9687,-3.9721,-3.9771,-3.9785,-3.984,-3.9756,-3.9818,-3.9859,-3.9791,-3.9873,-3.9876,-3.9898,-3.9999,-4.0043,-4.0006,-4.021,-4.0141,-4.0153,-4.0158,-4.0216,-4.024,-4.0261,-3.9984,-3.9983,-3.9982,0,0,-3.9833,-3.9843,-3.9921,-3.9936,-3.9958,-3.9947,-3.9966,-3.9976,-3.9976,-4.0058,-4.0009,-4.0057,-4.0138,-4.0156,-4.0176,-4.0338,-4.0299,-4.0352,-4.0447,-4.0508,-4.0527,-4.0545,-4.0604,-4.0626,-4.0365,-4.0365,-4.0366,0,-3.9916,-3.9997,-3.9965,-4.0031,-4.0055,-3.9996,-4.0075,-4.0091,-4.0126,-4.0144,-4.0102,-4.0203,-4.0214,-4.0319,-4.0359,-4.0376,-4.0397,-4.0351,-4.0527,-4.0544,-4.056,-4.0616,-4.0638,-4.0372,-4.0371,-4.037,-4.037,0,-4.0098,-4.0155,-4.0215,-4.0251,-4.0281,-4.0353,-4.0334,-4.0368,-4.0344,-4.0338,-4.0422,-4.0433,-4.0477,-4.05,-4.0476,-4.0602,-4.0579,-4.0532,-4.0458,-4.059,-4.0643,-4.0664,-4.0381,-4.0379,-4.0377,-4.0375,0,0,-4.0314,-4.0332,-4.0354,-4.037,-4.039,-4.0434,-4.0503,-4.0547,-4.0578,-4.0604,-4.0663,-4.0733,-4.069,-4.0713,-4.0691,-4.0744,-4.0874,-4.0691,-4.0691,-4.0726,-4.1015,-4.1052,-4.1077,-4.0847,-4.0851,-4.0854,-4.1014,0,-4.0468,-4.0588,-4.0562,-4.068,-4.0734,-4.0679,-4.0739,-4.0759,-4.0755,-4.08,-4.0795,-4.0847,-4.0786,-4.0799,-4.0849,-4.0847,-4.0932,-4.0835,-4.0903,-4.0906,-4.0901,-4.1104,-4.1142,-4.1293,-4.1034,-4.1038,-4.104,0,-4.0664,-4.0698,-4.0822,-4.0834,-4.0855,-4.091,-4.0949,-4.0992,-4.1013,-4.1006,-4.1033,-4.1,-4.107,-4.0994,-4.1091,-4.1026,-4.1052,-4.1055,-4.106,-4.1067,-4.0982,-4.1118,-4.134,-4.1363,-4.1072,-4.1069,-4.1067,0,-4.0811,-4.0887,-4.0972,-4.0987,-4.1003,-4.1043,-4.1052,-4.1068,-4.1097,-4.113,-4.1149,-4.119,-4.1213,-4.1247,-4.1227,-4.1173,-4.1328,-4.1249,-4.1326,-4.1327,-4.1363,-4.1361,-4.1594,-4.1377,-4.1376,-4.1376,-4.1375,0,-4.0987,-4.1065,-4.1038,-4.1091,-4.1177,-4.1146,-4.1233,-4.1235,-4.1251,-4.1303,-4.1257,-4.1307,-4.1277,-4.1325,-4.131,-4.1394,-4.1404,-4.1402,-4.1397,-4.1407,-4.1408,-4.1425,-4.1415,-4.1382,-4.1381,-4.1379,-4.1378,0,-4.1167,-4.1152,-4.124,-4.1248,-4.1252,-4.1316,-4.1323,-4.1372,-4.1364,-4.1431,-4.1445,-4.1434,-4.1489,-4.1472,-4.153,-4.152,-4.1627,-4.1608,-4.162,-4.1616,-4.1694,-4.1688,-4.1947,-4.1981,-4.1741,-4.1743,-4.1745,0,-4.1281,-4.134,-4.1354,-4.1386,-4.1398,-4.1449,-4.1478,-4.1451,-4.1483,-4.1512,-4.1558,-4.1608,-4.1646,-4.1736,-4.1734,-4.1778,-4.1761,-4.1849,-4.1768,-4.1776,-4.1765,-4.1762,-4.1769,-4.1866,-4.1869,-4.1871,-4.1873,0,-4.1485,-4.1475,-4.1518,-4.1559,-4.1595,-4.1626,-4.1653,-4.1682,-4.1656,-4.1694,-4.1749,-4.1779,-4.1839,-4.189,-4.1931,-4.194,-4.1904,-4.1898,-4.1919,-4.193,-4.1936,-4.1936,-4.1666,-4.1893,-4.1891,-4.1889,-4.1888,-4.1887,-4.1637,-4.1687,-4.1706,-4.1756,-4.1773,-4.18,-4.1847,-4.1846,-4.1891,-4.1937,-4.1918,-4.1982,-4.2002,-4.2053,-4.2068,-4.2118,-4.2085,-4.2114,-4.2122,-4.213,-4.2141,-4.1926,-4.2125,-4.2125,-4.2124,-4.2124,-4.2123,0,-4.184,-4.185,-4.1896,-4.1935,-4.1975,-4.1936,-4.1964,-4.2,-4.2057,-4.2079,-4.2118,-4.2182,-4.2231,-4.2233,-4.2279,-4.2319,-4.2304,-4.2333,-4.233,-4.2334,-4.2167,-4.2146,-4.2345,-4.2345,-4.2345,-4.2345,-4.2345,-4.2344,-4.1951,-4.2035,-4.2028,-4.212,-4.2129,-4.2191,-4.2211,-4.2235,-4.2253,-4.2326,-4.2367,-4.2368,-4.2382,-4.2429,-4.2474,-4.2473,-4.2493,-4.2529,-4.2522,-4.2367,-4.2345,-4.2324,-4.2304,-4.2533,-4.2533,-4.2685,-4.2686,-4.2687]},{"header":{"parameterUnit":"m.s-1","parameterCategory":1,"la1":30.2991,"la2":30.254,"lo1":-89.0895,"lo2":-89.0444,"dy":0.0017,"dx":0.0017,"nx":28,"ny":28,"refTime":"2024-10-18T21:00:00:Z","depth":0,"parameterNumber":3,"parameterNumberName":"V-component_of_WINDS"},"data":[0,0,0,0,0,0,0,0,0,0,0,0,0,0,0,0,0,0,0,0,0,0,0,0,0,0,0,0,0,0,0,0,0,0,0,0,0,0,0,0,0,0,0,0,0,0,0,0,0,0,0,0,0,0,0,0,0,0,-1.9451,-1.9451,0,-1.9443,-1.9443,-1.9443,-1.941,-1.941,-1.9409,-1.9408,-1.94,-1.94,-1.9401,0,0,0,0,0,0,0,0,0,0,0,0,0,-1.9437,-1.9438,-1.9451,-1.9451,-1.9451,-1.9443,-1.9443,-1.9443,-1.941,-1.941,-1.9409,-1.9408,-1.94,-1.94,-1.9401,0,0,0,0,0,0,0,0,0,0,0,0,0,-1.9438,-1.9438,-1.9451,-1.9434,-1.9432,-1.9443,-1.9443,-1.9443,-1.9411,-1.941,-1.9408,-1.9407,-1.9399,-1.94,-1.9401,-1.9427,0,0,-1.9403,-1.9403,0,0,0,0,0,0,0,0,-1.9438,-1.9438,-1.9436,-1.9435,-1.9433,-1.9426,-1.9435,-1.9437,-1.9411,-1.9419,-1.9408,-1.9407,-1.941,-1.9409,-1.941,-1.9427,-1.9427,-1.9403,-1.9403,-1.9404,-1.9404,0,0,0,0,0,0,0,-1.9438,-1.9438,-1.9448,-1.9436,-1.9434,-1.9426,-1.9425,-1.9435,-1.9421,-1.9418,-1.9416,-1.9415,-1.9408,-1.941,-1.941,-1.9427,-1.9403,-1.9404,-1.9404,-1.9404,-1.9464,-1.9465,0,0,0,0,0,0,-1.944,-1.9438,-1.9448,-1.9447,-1.9433,-1.9427,-1.9426,-1.943,-1.942,-1.9418,-1.9416,-1.9414,-1.9409,-1.9409,-1.9409,-1.9439,-1.9404,-1.9404,-1.9405,-1.9462,-1.9464,-1.9465,0,0,0,0,0,0,-1.944,-1.9441,-1.9448,-1.9442,-1.9442,-1.9429,-1.9433,-1.943,-1.9431,-1.9419,-1.9416,-1.942,-1.9408,-1.9408,-1.9423,-1.9439,-1.9405,-1.9405,-1.9461,-1.9463,-1.9464,-1.95,0,0,0,0,0,0,-1.944,-1.9441,-1.9452,-1.9443,-1.9443,-1.9462,-1.9434,-1.9431,-1.9433,-1.9429,-1.9422,-1.942,-1.9407,-1.9422,-1.9424,-1.9439,-1.9406,-1.946,-1.9462,-1.9464,-1.9497,-1.9503,-1.9507,0,0,0,0,0,-1.9439,-1.9462,-1.9453,-1.9454,-1.9456,-1.9463,-1.9463,-1.9449,-1.9434,-1.9444,-1.9436,-1.942,-1.9437,-1.9424,-1.9425,-1.9441,-1.9459,-1.9461,-1.9464,-1.9495,-1.9502,-1.9507,0,0,0,0,0,0,-1.9474,-1.9461,-1.945,-1.9471,-1.9468,-1.9458,-1.947,-1.9456,-1.9458,-1.9455,-1.9437,-1.9435,-1.9452,-1.9448,-1.9434,-1.9466,-1.9445,-1.9448,-1.9468,-1.9474,-1.9479,-1.948,-1.9407,0,0,0,0,0,-1.9484,-1.9492,-1.948,-1.9499,-1.9498,-1.9485,-1.9487,-1.9476,-1.9473,-1.9472,-1.9465,-1.9462,-1.9467,-1.947,-1.9474,-1.9496,-1.9494,-1.9508,-1.9513,-1.9517,-1.952,-1.953,-1.9536,-1.9473,-1.9473,-1.9473,0,0,-1.9505,-1.9499,-1.9505,-1.9506,-1.9503,-1.9511,-1.9484,-1.9494,-1.9499,-1.9473,-1.9487,-1.9481,-1.9477,-1.9495,-1.9503,-1.9492,-1.9536,-1.952,-1.9524,-1.9524,-1.9534,-1.954,-1.9545,-1.9475,-1.9475,-1.9475,0,0,-1.9547,-1.9543,-1.9559,-1.9556,-1.9551,-1.9542,-1.9545,-1.9537,-1.9532,-1.9545,-1.9525,-1.9531,-1.954,-1.9537,-1.9537,-1.9577,-1.9562,-1.9578,-1.9604,-1.9615,-1.962,-1.9624,-1.9638,-1.9643,-1.9581,-1.9581,-1.9581,0,-1.9574,-1.9585,-1.9569,-1.9579,-1.958,-1.9556,-1.9571,-1.9569,-1.9566,-1.9567,-1.9555,-1.9564,-1.956,-1.9577,-1.9586,-1.9587,-1.959,-1.9579,-1.9621,-1.9625,-1.9628,-1.9641,-1.9647,-1.9583,-1.9583,-1.9583,-1.9582,0,-1.9618,-1.9626,-1.9639,-1.9636,-1.9638,-1.9651,-1.9636,-1.964,-1.9628,-1.9619,-1.9632,-1.9626,-1.9627,-1.963,-1.9619,-1.9645,-1.9639,-1.9624,-1.9602,-1.9637,-1.9648,-1.9653,-1.9586,-1.9585,-1.9585,-1.9584,0,0,-1.9683,-1.967,-1.9675,-1.9673,-1.9665,-1.9671,-1.9682,-1.9683,-1.9686,-1.9685,-1.9693,-1.97,-1.9686,-1.9686,-1.9674,-1.9683,-1.9714,-1.9667,-1.9667,-1.9676,-1.9742,-1.9754,-1.976,-1.9704,-1.9705,-1.9706,-1.9742,0,-1.9723,-1.9742,-1.9726,-1.9748,-1.9754,-1.9731,-1.9741,-1.9737,-1.9729,-1.9733,-1.9724,-1.9729,-1.971,-1.971,-1.9718,-1.9709,-1.9727,-1.9706,-1.9712,-1.9712,-1.9714,-1.9766,-1.9778,-1.9813,-1.9747,-1.9748,-1.9748,0,-1.9772,-1.9772,-1.9794,-1.9784,-1.9786,-1.9795,-1.9794,-1.9799,-1.9793,-1.9787,-1.9786,-1.9771,-1.9781,-1.9759,-1.9772,-1.9758,-1.9759,-1.9755,-1.9756,-1.9756,-1.9733,-1.9767,-1.9824,-1.9829,-1.9755,-1.9755,-1.9754,0,-1.9817,-1.9823,-1.9836,-1.9835,-1.9824,-1.983,-1.9826,-1.9819,-1.982,-1.982,-1.982,-1.982,-1.9821,-1.9821,-1.9806,-1.9792,-1.982,-1.9798,-1.9815,-1.9815,-1.9822,-1.9822,-1.988,-1.9823,-1.9823,-1.9823,-1.9823,0,-1.9864,-1.9878,-1.9856,-1.9864,-1.9879,-1.9861,-1.9876,-1.9869,-1.9863,-1.9869,-1.9849,-1.9856,-1.9836,-1.984,-1.9828,-1.984,-1.984,-1.9835,-1.9832,-1.9837,-1.9838,-1.9838,-1.9835,-1.9824,-1.9824,-1.9824,-1.9824,0,-1.9917,-1.9903,-1.9916,-1.9903,-1.99,-1.9912,-1.9901,-1.9908,-1.9898,-1.9906,-1.9907,-1.9891,-1.9895,-1.988,-1.9881,-1.9873,-1.9891,-1.9884,-1.9893,-1.9891,-1.9908,-1.9907,-1.9968,-1.9975,-1.9914,-1.9915,-1.9915,0,-1.9947,-1.9958,-1.9946,-1.9949,-1.9945,-1.995,-1.995,-1.9932,-1.9934,-1.9928,-1.9935,-1.9937,-1.9938,-1.9944,-1.9933,-1.9933,-1.9925,-1.9947,-1.9926,-1.993,-1.9926,-1.9925,-1.9926,-1.9952,-1.9953,-1.9953,-1.9954,0,-2.0003,-1.9995,-1.9997,-1.9997,-1.9998,-1.9997,-1.9994,-1.9997,-1.9977,-1.998,-1.9983,-1.9984,-1.9984,-1.9986,-1.9984,-1.9978,-1.9963,-1.996,-1.9964,-1.997,-1.9974,-1.9972,-1.9905,-1.9959,-1.9959,-1.9958,-1.9958,-1.9958,-2.0046,-2.0053,-2.0046,-2.0049,-2.0044,-2.0042,-2.0048,-2.0038,-2.004,-2.0039,-2.0028,-2.0033,-2.0026,-2.0021,-2.0018,-2.0021,-2.0011,-2.0017,-2.0018,-2.002,-2.0023,-1.9974,-2.0021,-2.002,-2.002,-2.002,-2.002,0,-2.01,-2.0094,-2.0097,-2.0093,-2.0095,-2.0079,-2.0075,-2.0077,-2.0082,-2.0077,-2.0077,-2.008,-2.0081,-2.007,-2.0069,-2.0074,-2.0067,-2.0075,-2.0074,-2.0073,-2.0032,-2.0029,-2.0081,-2.0081,-2.0081,-2.008,-2.008,-2.008,-2.0129,-2.0141,-2.0132,-2.0141,-2.0134,-2.0139,-2.0138,-2.0135,-2.0131,-2.0135,-2.0136,-2.0128,-2.012,-2.0118,-2.0119,-2.0115,-2.0116,-2.0126,-2.012,-2.0082,-2.0076,-2.0071,-2.0067,-2.0126,-2.0126,-2.0161,-2.0161,-2.0161]}]]